Location: Unspecified
(0.0000°N, 0.0000°E)
Time: 01:06:35
(UTC+00:00)

OTV 5 (USA 277) - Pass Details

Date: 20 February 2019
Orbit: 342 x 346 km, 54.5° (Epoch: 09 February)

Event Time Altitude Azimuth Distance (km) Brightness Sun altitude
Rises 18:48:38 0° 245° (WSW) 2,133 ? -8.6°
Reaches altitude 10° 18:51:36 10° 279° (W) 1,289 ? -9.3°
Maximum altitude 18:52:45 12° 303° (WNW) 1,190 ? -9.6°
Drops below altitude 10° 18:53:53 10° 326° (NNW) 1,285 ? -9.9°
Sets 18:56:51 0° 1° (N) 2,119 ? -10.6°
